SCO25EF EGPF-EGBB

Flight info

Callsign SCO25EF
Flight time 0h 41m
Altitude 25000
Route NORBO T256 RIPNO/N0380F270 DCT AKOMU DCT VAMEB UL612 CROFT
Aircraft A320/M-SDE3FGHIRWY/LB1

Departure

Time 2026-04-28 17:06
Airport Glasgow Airport (EGPF)

Arrival

Time 2026-04-28 17:48
Airport Birmingham Airport (EGBB)
Time Latitude Longitude Altitude Speed Heading
2026-04-28 16:43 55.86623 -4.43704 29 ft 0 kts 241°
2026-04-28 16:59 55.86634 -4.43667 29 ft 4 kts 247°
2026-04-28 16:59 55.86642 -4.43622 29 ft 4 kts 265°
2026-04-28 17:00 55.86639 -4.43582 29 ft 4 kts 321°
2026-04-28 17:00 55.86630 -4.43573 29 ft 1 kts 344°
2026-04-28 17:00 55.86629 -4.43572 29 ft 0 kts 344°
2026-04-28 17:02 55.86697 -4.43607 29 ft 13 kts 344°
2026-04-28 17:02 55.86736 -4.43713 29 ft 11 kts 258°
2026-04-28 17:03 55.86647 -4.43917 29 ft 11 kts 226°
2026-04-28 17:03 55.86589 -4.44024 29 ft 12 kts 225°
2026-04-28 17:03 55.86532 -4.44121 29 ft 11 kts 222°
2026-04-28 17:04 55.86438 -4.44308 29 ft 9 kts 226°
2026-04-28 17:04 55.86394 -4.44389 29 ft 9 kts 226°
2026-04-28 17:05 55.86299 -4.44567 29 ft 15 kts 226°
2026-04-28 17:05 55.86263 -4.44727 29 ft 15 kts 305°
2026-04-28 17:05 55.86332 -4.44849 29 ft 13 kts 317°
2026-04-28 17:06 55.86528 -4.44576 29 ft 58 kts 46°
2026-04-28 17:06 55.86971 -4.43748 29 ft 124 kts 46°
2026-04-28 17:06 55.88460 -4.40911 857 ft 170 kts 48°
2026-04-28 17:07 55.89293 -4.39347 1582 ft 177 kts 46°
2026-04-28 17:07 55.90199 -4.37826 2378 ft 182 kts 46°
2026-04-28 17:07 55.91149 -4.36092 2773 ft 210 kts 49°
2026-04-28 17:07 55.92143 -4.34018 3279 ft 233 kts 50°
2026-04-28 17:08 55.93442 -4.32123 4020 ft 249 kts 25°
2026-04-28 17:08 55.95179 -4.31637 4962 ft 260 kts 355°
2026-04-28 17:08 55.96897 -4.32745 5819 ft 273 kts 328°
2026-04-28 17:08 55.98161 -4.35299 5989 ft 280 kts 295°
2026-04-28 17:09 55.98443 -4.38707 6041 ft 285 kts 259°
2026-04-28 17:09 55.97677 -4.41975 6900 ft 287 kts 240°
2026-04-28 17:09 55.96768 -4.45164 7870 ft 290 kts 243°
2026-04-28 17:09 55.95894 -4.48457 8763 ft 295 kts 244°
2026-04-28 17:10 55.94798 -4.51552 9606 ft 301 kts 227°
2026-04-28 17:10 55.93353 -4.54314 10478 ft 305 kts 225°
2026-04-28 17:10 55.91824 -4.57117 10919 ft 326 kts 224°
2026-04-28 17:10 55.90173 -4.60080 11356 ft 344 kts 224°
2026-04-28 17:11 55.88462 -4.63133 12061 ft 352 kts 224°
2026-04-28 17:11 55.86741 -4.66193 12814 ft 357 kts 222°
2026-04-28 17:11 55.84723 -4.68916 13558 ft 362 kts 212°
2026-04-28 17:11 55.82624 -4.71336 14298 ft 367 kts 210°
2026-04-28 17:12 55.80325 -4.73479 14973 ft 370 kts 199°
2026-04-28 17:12 55.77886 -4.74728 15629 ft 371 kts 187°
2026-04-28 17:12 55.75317 -4.75168 16300 ft 372 kts 178°
2026-04-28 17:12 55.72716 -4.75308 16987 ft 376 kts 178°
2026-04-28 17:13 55.70082 -4.75473 17662 ft 381 kts 178°
2026-04-28 17:13 55.67418 -4.75652 18337 ft 386 kts 178°
2026-04-28 17:13 55.64724 -4.75830 18943 ft 390 kts 176°
2026-04-28 17:13 55.62023 -4.75513 19507 ft 388 kts 165°
2026-04-28 17:14 55.59430 -4.74301 20102 ft 384 kts 153°
2026-04-28 17:14 55.57041 -4.72257 20701 ft 380 kts 143°
2026-04-28 17:14 55.54919 -4.69521 21297 ft 378 kts 135°
2026-04-28 17:14 55.52877 -4.66564 21896 ft 381 kts 135°
2026-04-28 17:15 55.50814 -4.63596 22487 ft 384 kts 135°
2026-04-28 17:15 55.48726 -4.60608 23080 ft 388 kts 135°
2026-04-28 17:15 55.46618 -4.57604 23672 ft 391 kts 136°
2026-04-28 17:15 55.44488 -4.54581 24214 ft 394 kts 136°
2026-04-28 17:16 55.42344 -4.51543 24706 ft 397 kts 136°
2026-04-28 17:16 55.40185 -4.48480 25177 ft 400 kts 136°
2026-04-28 17:16 55.38010 -4.45396 25402 ft 402 kts 136°
2026-04-28 17:16 55.35848 -4.42340 25468 ft 391 kts 136°
2026-04-28 17:17 55.33764 -4.39407 25460 ft 380 kts 135°
2026-04-28 17:17 55.31709 -4.36512 25459 ft 377 kts 135°
2026-04-28 17:17 55.29671 -4.33637 25459 ft 375 kts 135°
2026-04-28 17:17 55.27636 -4.30763 25456 ft 375 kts 135°
2026-04-28 17:18 55.25606 -4.27898 25454 ft 375 kts 135°
2026-04-28 17:18 55.23573 -4.25038 25453 ft 375 kts 135°
2026-04-28 17:18 55.21511 -4.22146 25458 ft 388 kts 135°
2026-04-28 17:18 55.19358 -4.19118 25455 ft 405 kts 136°
2026-04-28 17:19 55.17194 -4.15844 25454 ft 416 kts 129°
2026-04-28 17:19 55.15170 -4.12128 25453 ft 428 kts 128°
2026-04-28 17:19 55.13799 -4.09600 25453 ft 435 kts 128°
2026-04-28 17:19 55.10994 -4.04432 25453 ft 440 kts 128°
2026-04-28 17:20 55.09594 -4.01859 25453 ft 441 kts 128°
2026-04-28 17:20 55.07479 -3.97976 25453 ft 442 kts 128°
2026-04-28 17:20 55.05361 -3.94093 25452 ft 442 kts 128°
2026-04-28 17:20 55.03242 -3.90208 25456 ft 442 kts 128°
2026-04-28 17:21 55.01122 -3.86328 25455 ft 442 kts 128°
2026-04-28 17:21 54.98999 -3.82453 25455 ft 442 kts 129°
2026-04-28 17:21 54.96875 -3.78590 25459 ft 442 kts 128°
2026-04-28 17:22 54.92212 -3.71576 25469 ft 451 kts 143°
2026-04-28 17:22 54.89537 -3.68714 25467 ft 451 kts 143°
2026-04-28 17:22 54.86862 -3.65873 25462 ft 451 kts 143°
2026-04-28 17:23 54.81497 -3.60203 25458 ft 451 kts 143°
2026-04-28 17:23 54.78814 -3.57369 25454 ft 451 kts 143°
2026-04-28 17:23 54.76136 -3.54538 25452 ft 451 kts 143°
2026-04-28 17:23 54.73459 -3.51707 25452 ft 451 kts 143°
2026-04-28 17:24 54.70778 -3.48876 25454 ft 451 kts 143°
2026-04-28 17:24 54.68096 -3.46048 25469 ft 451 kts 143°
2026-04-28 17:24 54.65415 -3.43222 25467 ft 451 kts 143°
2026-04-28 17:24 54.62734 -3.40402 25463 ft 452 kts 143°
2026-04-28 17:25 54.60051 -3.37585 25459 ft 452 kts 143°
2026-04-28 17:25 54.54679 -3.31963 25449 ft 451 kts 143°
2026-04-28 17:25 54.51994 -3.29160 25450 ft 452 kts 143°
2026-04-28 17:26 54.49308 -3.26362 25452 ft 451 kts 143°
2026-04-28 17:26 54.46618 -3.23566 25448 ft 451 kts 143°
2026-04-28 17:26 54.44274 -3.21135 25462 ft 452 kts 143°
2026-04-28 17:26 54.41929 -3.18702 25475 ft 452 kts 143°
2026-04-28 17:27 54.39238 -3.15914 25472 ft 452 kts 143°
2026-04-28 17:27 54.36536 -3.13121 25469 ft 452 kts 143°
2026-04-28 17:27 54.33842 -3.10339 25457 ft 452 kts 143°
2026-04-28 17:27 54.31145 -3.07555 25455 ft 452 kts 143°
2026-04-28 17:28 54.28454 -3.04779 25447 ft 452 kts 143°
2026-04-28 17:28 54.23069 -2.99243 25446 ft 452 kts 143°
2026-04-28 17:28 54.20411 -2.96524 25472 ft 451 kts 143°
2026-04-28 17:29 54.17681 -2.93744 25467 ft 452 kts 144°
2026-04-28 17:29 54.14846 -2.91472 25462 ft 457 kts 150°
2026-04-28 17:29 54.11888 -2.89309 25457 ft 457 kts 151°
2026-04-28 17:30 54.06079 -2.85087 25438 ft 457 kts 151°
2026-04-28 17:30 54.00227 -2.80848 25430 ft 456 kts 151°
2026-04-28 17:30 53.97305 -2.78737 25426 ft 456 kts 151°
2026-04-28 17:31 53.94384 -2.76630 25444 ft 456 kts 150°
2026-04-28 17:31 53.88544 -2.72405 25432 ft 456 kts 150°
2026-04-28 17:32 53.82700 -2.68180 25426 ft 457 kts 150°
2026-04-28 17:32 53.79738 -2.66052 25422 ft 456 kts 151°
2026-04-28 17:32 53.76855 -2.63988 25420 ft 456 kts 151°
2026-04-28 17:32 53.73938 -2.61902 25417 ft 456 kts 151°
2026-04-28 17:33 53.70973 -2.59788 25464 ft 456 kts 150°
2026-04-28 17:33 53.68090 -2.57736 25459 ft 455 kts 150°
2026-04-28 17:33 53.65175 -2.55666 25453 ft 455 kts 150°
2026-04-28 17:33 53.63215 -2.54251 25449 ft 452 kts 148°
2026-04-28 17:34 53.59649 -2.50783 25443 ft 445 kts 141°
2026-04-28 17:34 53.57007 -2.48056 25145 ft 446 kts 141°
2026-04-28 17:34 53.54328 -2.45288 24486 ft 446 kts 141°
2026-04-28 17:34 53.51713 -2.42589 23906 ft 448 kts 142°
2026-04-28 17:35 53.49056 -2.39857 23266 ft 450 kts 142°
2026-04-28 17:35 53.46374 -2.37107 22699 ft 451 kts 142°
2026-04-28 17:35 53.43694 -2.34365 22100 ft 453 kts 142°
2026-04-28 17:35 53.40968 -2.31587 21663 ft 453 kts 143°
2026-04-28 17:36 53.38303 -2.28880 21661 ft 454 kts 143°
2026-04-28 17:36 53.35559 -2.26099 21596 ft 455 kts 143°
2026-04-28 17:36 53.32903 -2.23505 21315 ft 440 kts 144°
2026-04-28 17:36 53.30238 -2.21036 20973 ft 425 kts 145°
2026-04-28 17:37 53.27669 -2.18719 20584 ft 414 kts 145°
2026-04-28 17:37 53.25165 -2.16472 20177 ft 405 kts 145°
2026-04-28 17:37 53.22712 -2.14255 19694 ft 399 kts 145°
2026-04-28 17:37 53.20289 -2.12042 19173 ft 395 kts 145°
2026-04-28 17:38 53.17893 -2.09837 18650 ft 391 kts 145°
2026-04-28 17:38 53.15529 -2.07657 18040 ft 387 kts 145°
2026-04-28 17:38 53.13180 -2.05491 17466 ft 384 kts 145°
2026-04-28 17:38 53.10854 -2.03356 16895 ft 380 kts 145°
2026-04-28 17:39 53.08577 -2.01272 16341 ft 377 kts 146°
2026-04-28 17:39 53.06285 -1.99176 15786 ft 375 kts 146°
2026-04-28 17:39 53.01250 -1.96897 14712 ft 381 kts 171°
2026-04-28 17:40 52.98613 -1.96547 14199 ft 378 kts 171°
2026-04-28 17:40 52.96005 -1.96214 13620 ft 374 kts 171°
2026-04-28 17:40 52.93441 -1.95896 13281 ft 364 kts 171°
2026-04-28 17:40 52.90955 -1.95589 13014 ft 353 kts 171°
2026-04-28 17:41 52.88540 -1.95283 12629 ft 345 kts 170°
2026-04-28 17:41 52.86193 -1.94979 12571 ft 329 kts 170°
2026-04-28 17:41 52.83943 -1.94688 12323 ft 321 kts 170°
2026-04-28 17:41 52.81736 -1.94394 11969 ft 317 kts 170°
2026-04-28 17:42 52.79555 -1.94101 11617 ft 312 kts 170°
2026-04-28 17:42 52.78094 -1.93907 11328 ft 311 kts 170°
2026-04-28 17:42 52.75233 -1.93534 10557 ft 307 kts 171°
2026-04-28 17:42 52.73133 -1.93266 9940 ft 300 kts 171°
2026-04-28 17:43 52.71076 -1.93001 9247 ft 293 kts 170°
2026-04-28 17:43 52.69064 -1.92741 8570 ft 287 kts 171°
2026-04-28 17:43 52.67089 -1.92486 7905 ft 281 kts 171°
2026-04-28 17:43 52.65159 -1.92238 7248 ft 276 kts 171°
2026-04-28 17:44 52.63263 -1.91992 6590 ft 271 kts 171°
2026-04-28 17:44 52.61400 -1.91691 5922 ft 264 kts 163°
2026-04-28 17:44 52.59709 -1.90734 5264 ft 253 kts 147°
2026-04-28 17:44 52.58280 -1.89219 4589 ft 236 kts 140°
2026-04-28 17:45 52.56963 -1.87742 3932 ft 225 kts 140°
2026-04-28 17:45 52.55695 -1.86329 3217 ft 216 kts 139°
2026-04-28 17:45 52.54449 -1.84935 2622 ft 209 kts 140°
2026-04-28 17:45 52.53303 -1.83665 2531 ft 188 kts 140°
2026-04-28 17:46 52.52301 -1.82562 2494 ft 163 kts 139°
2026-04-28 17:46 52.51382 -1.81538 2187 ft 159 kts 138°
2026-04-28 17:46 52.50483 -1.80492 1629 ft 162 kts 136°
2026-04-28 17:46 52.49548 -1.79464 1125 ft 161 kts 139°
2026-04-28 17:47 52.48648 -1.78478 883 ft 151 kts 135°
2026-04-28 17:47 52.47813 -1.77499 679 ft 146 kts 137°
2026-04-28 17:47 52.46978 -1.76567 482 ft 145 kts 138°
2026-04-28 17:47 52.46412 -1.75951 374 ft 144 kts 135°
2026-04-28 17:48 52.45394 -1.74798 325 ft 107 kts 147°
2026-04-28 17:48 52.44968 -1.74338 325 ft 28 kts 144°
2026-04-28 17:48 52.44950 -1.74197 327 ft 29 kts 85°
2026-04-28 17:48 52.44987 -1.73989 323 ft 14 kts 75°
2026-04-28 17:49 52.45019 -1.73871 324 ft 10 kts 54°
2026-04-28 17:49 52.45047 -1.73760 324 ft 12 kts 104°
2026-04-28 17:49 52.44990 -1.73696 324 ft 9 kts 144°
2026-04-28 17:49 52.44938 -1.73638 324 ft 9 kts 146°
2026-04-28 17:50 52.44900 -1.73571 324 ft 8 kts 113°
2026-04-28 17:50 52.44910 -1.73484 322 ft 9 kts 62°
2026-04-28 17:50 52.44942 -1.73407 324 ft 5 kts 55°
2026-04-28 17:50 52.44978 -1.73414 324 ft 7 kts 328°
2026-04-28 17:51 52.44987 -1.73424 322 ft 0 kts 326°
2026-04-28 17:51 52.44991 -1.73428 323 ft 1 kts 326°
2026-04-28 17:51 52.44994 -1.73432 323 ft 0 kts 326°